• In Deutschland
  • Länderverzeichnis
  • Für 7 Tage
  • Wassertemperatur
  • Satellitenkarten
  • Wetterkarte
  • Widgets
  • user-avatar
    Anmelden

    Stündliche Wetter Kchulna

    Heute, 25 Juli, Dienstag

    Zeit Temperatur Niederschläge Wind Luftdruck Luftfeuchtigkeit
    00:00 +28°C° 6,8 mm 7 m/S 748 mmHg 89%
    01:00 +28°C° 3,2 mm 6 m/S 748 mmHg 89%
    02:00 +28°C° 3,2 mm 6 m/S 747 mmHg 89%
    03:00 +28°C° 3,2 mm 6 m/S 747 mmHg 89%
    04:00 +28°C° 2,3 mm 5 m/S 747 mmHg 89%
    05:00 +28°C° 2,3 mm 5 m/S 748 mmHg 89%
    06:00 +28°C° 2,3 mm 5 m/S 748 mmHg 89%
    07:00 +28°C° 1,9 mm 5 m/S 748 mmHg 88%
    08:00 +28°C° 1,9 mm 5 m/S 748 mmHg 88%
    09:00 +29°C° 1,9 mm 5 m/S 749 mmHg 87%
    10:00 +29°C° 1,4 mm 5 m/S 749 mmHg 86%
    11:00 +29°C° 1,4 mm 5 m/S 749 mmHg 86%
    12:00 +29°C° 1,4 mm 5 m/S 749 mmHg 85%
    13:00 +30°C° 0,4 mm 5 m/S 749 mmHg 82%
    14:00 +32°C° 0,4 mm 5 m/S 748 mmHg 79%
    15:00 +33°C° 0,4 mm 6 m/S 748 mmHg 76%
    16:00 +32°C° 1,2 mm 5 m/S 748 mmHg 79%
    17:00 +32°C° 1,2 mm 5 m/S 748 mmHg 81%
    18:00 +30°C° 1,2 mm 4 m/S 748 mmHg 84%
    19:00 +30°C° 1 mm 4 m/S 748 mmHg 85%
    20:00 +29°C° 1 mm 4 m/S 749 mmHg 87%
    21:00 +29°C° 1 mm 4 m/S 749 mmHg 88%
    22:00 +29°C° 1,1 mm 4 m/S 749 mmHg 88%
    23:00 +29°C° 1,1 mm 4 m/S 749 mmHg 88%

    Morgen, 26 Juli, Mittwoch

    Zeit Temperatur Niederschläge Wind Luftdruck Luftfeuchtigkeit
    00:00 +29°C° 1,1 mm 4 m/S 750 mmHg 87%
    01:00 +29°C° 0,9 mm 4 m/S 749 mmHg 87%
    02:00 +28°C° 0,9 mm 3 m/S 749 mmHg 88%
    03:00 +28°C° 0,9 mm 3 m/S 749 mmHg 88%
    04:00 +28°C° 0,1 mm 3 m/S 749 mmHg 89%
    05:00 +28°C° 0,1 mm 2 m/S 749 mmHg 89%
    06:00 +28°C° 0,1 mm 2 m/S 749 mmHg 90%
    07:00 +29°C° 0,4 mm 2 m/S 750 mmHg 84%
    08:00 +31°C° 0,4 mm 2 m/S 750 mmHg 79%
    09:00 +32°C° 0,4 mm 2 m/S 751 mmHg 73%
    10:00 +34°C° 0,6 mm 3 m/S 751 mmHg 70%
    11:00 +35°C° 0,6 mm 3 m/S 750 mmHg 66%
    12:00 +36°C° 0,6 mm 3 m/S 750 mmHg 62%
    13:00 +36°C° 0,8 mm 3 m/S 750 mmHg 63%
    14:00 +36°C° 0,8 mm 3 m/S 749 mmHg 63%
    15:00 +36°C° 0,8 mm 4 m/S 748 mmHg 64%
    16:00 +35°C° 0,4 mm 3 m/S 748 mmHg 67%
    17:00 +35°C° 0,4 mm 3 m/S 748 mmHg 70%
    18:00 +34°C° 0,4 mm 3 m/S 748 mmHg 73%
    19:00 +32°C° 0 mm 2 m/S 749 mmHg 76%
    20:00 +31°C° 0 mm 2 m/S 749 mmHg 80%
    21:00 +30°C° 0 mm 2 m/S 750 mmHg 83%
    22:00 +30°C° 0 mm 2 m/S 750 mmHg 84%
    23:00 +30°C° 0 mm 2 m/S 750 mmHg 85%

    übermorgen, 27 Juli, Donnerstag

    Zeit Temperatur Niederschläge Wind Luftdruck Luftfeuchtigkeit
    00:00 +29°C° 0 mm 2 m/S 750 mmHg 86%
    01:00 +29°C° 0 mm 2 m/S 750 mmHg 87%
    02:00 +29°C° 0 mm 2 m/S 750 mmHg 87%
    03:00 +29°C° 0 mm 2 m/S 750 mmHg 88%
    04:00 +29°C° 0 mm 2 m/S 750 mmHg 88%
    05:00 +29°C° 0 mm 2 m/S 750 mmHg 88%
    06:00 +29°C° 0 mm 2 m/S 750 mmHg 88%
    07:00 +30°C° 0,7 mm 2 m/S 751 mmHg 81%
    08:00 +32°C° 0,7 mm 2 m/S 751 mmHg 75%
    09:00 +34°C° 0,7 mm 2 m/S 751 mmHg 69%
    10:00 +35°C° 0,2 mm 2 m/S 751 mmHg 65%
    11:00 +36°C° 0,2 mm 2 m/S 751 mmHg 61%
    12:00 +36°C° 0,2 mm 1 m/S 750 mmHg 56%
    13:00 +37°C° 0,5 mm 2 m/S 750 mmHg 57%
    14:00 +37°C° 0,5 mm 2 m/S 749 mmHg 58%
    15:00 +37°C° 0,5 mm 2 m/S 748 mmHg 59%
    16:00 +36°C° 2,1 mm 2 m/S 748 mmHg 64%
    17:00 +35°C° 2,1 mm 3 m/S 748 mmHg 69%
    18:00 +34°C° 2,1 mm 3 m/S 748 mmHg 74%
    19:00 +33°C° 0,1 mm 3 m/S 749 mmHg 77%
    20:00 +31°C° 0,1 mm 3 m/S 750 mmHg 79%
    21:00 +31°C° 0,1 mm 3 m/S 750 mmHg 82%
    22:00 +30°C° 0 mm 3 m/S 750 mmHg 83%
    23:00 +30°C° 0 mm 2 m/S 750 mmHg 85%

    28 Juli, Freitag

    Zeit Temperatur Niederschläge Wind Luftdruck Luftfeuchtigkeit
    00:00 +30°C° 0 mm 2 m/S 751 mmHg 86%
    01:00 +30°C° 0,4 mm 2 m/S 750 mmHg 87%
    02:00 +30°C° 0,4 mm 2 m/S 750 mmHg 87%
    03:00 +30°C° 0,4 mm 2 m/S 750 mmHg 88%
    04:00 +29°C° 0,4 mm 2 m/S 750 mmHg 88%
    05:00 +29°C° 0,4 mm 2 m/S 750 mmHg 88%
    06:00 +29°C° 0,4 mm 2 m/S 750 mmHg 88%
    07:00 +31°C° 0,2 mm 2 m/S 751 mmHg 82%
    08:00 +33°C° 0,2 mm 3 m/S 751 mmHg 77%
    09:00 +34°C° 0,2 mm 3 m/S 752 mmHg 71%
    10:00 +35°C° 0,1 mm 3 m/S 751 mmHg 67%
    11:00 +36°C° 0,1 mm 3 m/S 751 mmHg 62%
    12:00 +37°C° 0,1 mm 3 m/S 751 mmHg 57%
    13:00 +37°C° 0 mm 3 m/S 750 mmHg 57%
    14:00 +37°C° 0 mm 3 m/S 750 mmHg 57%
    15:00 +37°C° 0 mm 3 m/S 749 mmHg 56%
    16:00 +37°C° 0 mm 3 m/S 749 mmHg 59%
    17:00 +36°C° 0 mm 3 m/S 749 mmHg 62%
    18:00 +35°C° 0 mm 3 m/S 749 mmHg 65%
    19:00 +34°C° 0 mm 3 m/S 750 mmHg 69%
    20:00 +33°C° 0 mm 3 m/S 750 mmHg 73%
    21:00 +31°C° 0 mm 3 m/S 751 mmHg 77%
    22:00 +31°C° 0 mm 3 m/S 751 mmHg 79%
    23:00 +31°C° 0 mm 2 m/S 751 mmHg 80%

    29 Juli, Samstag

    Zeit Temperatur Niederschläge Wind Luftdruck Luftfeuchtigkeit
    00:00 +30°C° 0 mm 2 m/S 751 mmHg 82%
    01:00 +30°C° 0 mm 2 m/S 751 mmHg 84%
    02:00 +30°C° 0 mm 2 m/S 751 mmHg 85%
    03:00 +30°C° 0 mm 2 m/S 750 mmHg 86%
    04:00 +30°C° 0 mm 2 m/S 751 mmHg 87%
    05:00 +30°C° 0 mm 2 m/S 751 mmHg 88%
    06:00 +29°C° 0 mm 2 m/S 751 mmHg 88%
    07:00 +31°C° 0 mm 2 m/S 752 mmHg 81%
    08:00 +33°C° 0 mm 3 m/S 752 mmHg 74%
    09:00 +35°C° 0 mm 3 m/S 753 mmHg 67%
    10:00 +36°C° 0 mm 3 m/S 752 mmHg 63%
    11:00 +37°C° 0 mm 3 m/S 752 mmHg 58%
    12:00 +38°C° 0 mm 3 m/S 751 mmHg 54%
    13:00 +38°C° 0 mm 3 m/S 751 mmHg 55%
    14:00 +38°C° 0 mm 3 m/S 750 mmHg 55%
    15:00 +38°C° 0 mm 2 m/S 750 mmHg 55%
    16:00 +37°C° 0 mm 3 m/S 749 mmHg 58%
    17:00 +36°C° 0 mm 3 m/S 749 mmHg 61%
    18:00 +36°C° 0 mm 3 m/S 749 mmHg 64%
    19:00 +35°C° 0 mm 3 m/S 750 mmHg 68%
    20:00 +34°C° 0 mm 3 m/S 750 mmHg 72%
    21:00 +31°C° 0 mm 3 m/S 751 mmHg 76%
    22:00 +31°C° 0 mm 3 m/S 751 mmHg 78%
    23:00 +31°C° 0 mm 3 m/S 751 mmHg 80%

    30 Juli, Sonntag

    Zeit Temperatur Niederschläge Wind Luftdruck Luftfeuchtigkeit
    00:00 +30°C° 0 mm 2 m/S 751 mmHg 82%
    01:00 +30°C° 0 mm 2 m/S 751 mmHg 84%
    02:00 +30°C° 0 mm 2 m/S 750 mmHg 85%
    03:00 +30°C° 0 mm 2 m/S 750 mmHg 87%
    04:00 +30°C° 0 mm 2 m/S 750 mmHg 88%
    05:00 +30°C° 0 mm 2 m/S 750 mmHg 88%
    06:00 +30°C° 0 mm 2 m/S 751 mmHg 89%
    07:00 +31°C° 0 mm 2 m/S 751 mmHg 81%
    08:00 +34°C° 0 mm 2 m/S 751 mmHg 74%
    09:00 +35°C° 0 mm 3 m/S 752 mmHg 66%
    10:00 +36°C° 0 mm 3 m/S 751 mmHg 62%
    11:00 +37°C° 0 mm 3 m/S 751 mmHg 57%
    12:00 +38°C° 0 mm 3 m/S 750 mmHg 53%
    13:00 +38°C° 0,1 mm 3 m/S 750 mmHg 54%
    14:00 +38°C° 0,1 mm 3 m/S 749 mmHg 54%
    15:00 +38°C° 0,1 mm 3 m/S 748 mmHg 54%
    16:00 +38°C° 0 mm 4 m/S 748 mmHg 58%
    17:00 +37°C° 0 mm 4 m/S 748 mmHg 61%
    18:00 +36°C° 0 mm 4 m/S 748 mmHg 65%
    19:00 +35°C° 0 mm 4 m/S 749 mmHg 68%
    20:00 +34°C° 0 mm 4 m/S 749 mmHg 72%
    21:00 +33°C° 0 mm 4 m/S 750 mmHg 75%
    22:00 +33°C° 0 mm 3 m/S 750 mmHg 77%
    23:00 +31°C° 0 mm 3 m/S 750 mmHg 79%
    Mehr zeigen